When you browse on this site, cookies collect data to enhance your experience and personalize the content and advertising you see.
Visit our Privacy Policy to learn more. By continuing to use the site, you agree to this use of cookies and data.
  • In Romania
  • List of Countries
  • For 7 days
  • Water Temperature
  • Satellite Maps
  • Weather Map
  • Weather Widgets
  • user-avatar
    Login

    Hourly Weather Achstetten

    Today, 17 February, Sunday

    Time Temperature Precipitation Wind Pressure Humidity
    00:00 +3°C° 0 mm 2 mps 724 mmHg 69%
    01:00 +3°C° 0 mm 2 mps 724 mmHg 66%
    02:00 +3°C° 0 mm 2 mps 724 mmHg 67%
    03:00 +3°C° 0 mm 2 mps 724 mmHg 68%
    04:00 +3°C° 0 mm 2 mps 724 mmHg 69%
    05:00 +2°C° 0 mm 2 mps 724 mmHg 69%
    06:00 +2°C° 0 mm 2 mps 723 mmHg 69%
    07:00 +2°C° 0 mm 2 mps 723 mmHg 69%
    08:00 +3°C° 0 mm 2 mps 723 mmHg 66%
    09:00 +5°C° 0 mm 2 mps 723 mmHg 64%
    10:00 +7°C° 0 mm 2 mps 723 mmHg 62%
    11:00 +8°C° 0 mm 2 mps 723 mmHg 59%
    12:00 +10°C° 0 mm 2 mps 723 mmHg 56%
    13:00 +13°C° 0 mm 2 mps 723 mmHg 53%
    14:00 +13°C° 0 mm 2 mps 722 mmHg 56%
    15:00 +13°C° 0 mm 1 mps 722 mmHg 58%
    16:00 +13°C° 0 mm 1 mps 722 mmHg 61%
    17:00 +11°C° 0 mm 1 mps 722 mmHg 62%
    18:00 +9°C° 0 mm 1 mps 721 mmHg 63%
    19:00 +7°C° 0 mm 1 mps 721 mmHg 65%
    20:00 +6°C° 0 mm 1 mps 721 mmHg 63%
    21:00 +6°C° 0 mm 1 mps 722 mmHg 61%
    22:00 +5°C° 0 mm 1 mps 722 mmHg 59%
    23:00 +5°C° 0 mm 1 mps 722 mmHg 58%

    Tomorrow, 18 February, Monday

    Time Temperature Precipitation Wind Pressure Humidity
    00:00 +4°C° 0 mm 1 mps 721 mmHg 58%
    01:00 +4°C° 0 mm 1 mps 721 mmHg 58%
    02:00 +4°C° 0 mm 1 mps 721 mmHg 60%
    03:00 +3°C° 0 mm 1 mps 721 mmHg 61%
    04:00 +3°C° 0 mm 1 mps 721 mmHg 63%
    05:00 +3°C° 0 mm 1 mps 721 mmHg 63%
    06:00 +3°C° 0 mm 1 mps 721 mmHg 64%
    07:00 +3°C° 0 mm 1 mps 721 mmHg 65%
    08:00 +4°C° 0 mm 1 mps 721 mmHg 61%
    09:00 +6°C° 0 mm 1 mps 720 mmHg 58%
    10:00 +8°C° 0 mm 1 mps 720 mmHg 55%
    11:00 +9°C° 0 mm 1 mps 720 mmHg 52%
    12:00 +10°C° 0 mm 0 mps 720 mmHg 48%
    13:00 +11°C° 0 mm 0 mps 720 mmHg 44%
    14:00 +11°C° 0 mm 0 mps 720 mmHg 47%
    15:00 +11°C° 0 mm 0 mps 719 mmHg 50%
    16:00 +11°C° 0 mm 0 mps 719 mmHg 53%
    17:00 +10°C° 0 mm 1 mps 719 mmHg 57%
    18:00 +8°C° 0 mm 1 mps 719 mmHg 61%
    19:00 +6°C° 0 mm 1 mps 719 mmHg 64%
    20:00 +6°C° 0 mm 1 mps 719 mmHg 65%
    21:00 +4°C° 0 mm 2 mps 720 mmHg 67%
    22:00 +4°C° 0 mm 2 mps 720 mmHg 68%
    23:00 +3°C° 0 mm 2 mps 720 mmHg 70%

    Day after tomorrow, 19 February, Tuesday

    Time Temperature Precipitation Wind Pressure Humidity
    00:00 +3°C° 0 mm 2 mps 720 mmHg 71%
    01:00 +2°C° 0 mm 3 mps 720 mmHg 73%
    02:00 +1°C° 0 mm 3 mps 720 mmHg 74%
    03:00 +1°C° 0 mm 3 mps 720 mmHg 75%
    04:00 +1°C° 0 mm 3 mps 720 mmHg 76%
    05:00 +1°C° 0 mm 3 mps 720 mmHg 78%
    06:00 +1°C° 0 mm 3 mps 720 mmHg 80%
    07:00 0°C° 0 mm 3 mps 720 mmHg 83%
    08:00 +2°C° 0 mm 3 mps 720 mmHg 77%
    09:00 +4°C° 0 mm 4 mps 720 mmHg 72%
    10:00 +5°C° 0 mm 4 mps 721 mmHg 67%
    11:00 +7°C° 0 mm 4 mps 721 mmHg 64%
    12:00 +8°C° 0 mm 4 mps 720 mmHg 62%
    13:00 +10°C° 0 mm 3 mps 720 mmHg 60%
    14:00 +10°C° 0 mm 3 mps 720 mmHg 61%
    15:00 +10°C° 0 mm 3 mps 720 mmHg 63%
    16:00 +10°C° 0 mm 3 mps 720 mmHg 65%
    17:00 +9°C° 0 mm 2 mps 720 mmHg 71%
    18:00 +7°C° 0 mm 2 mps 720 mmHg 77%
    19:00 +5°C° 0 mm 2 mps 721 mmHg 83%
    20:00 +5°C° 0 mm 2 mps 721 mmHg 85%
    21:00 +4°C° 0 mm 2 mps 721 mmHg 86%
    22:00 +5°C° 0 mm 1 mps 721 mmHg 88%
    23:00 +5°C° 0 mm 1 mps 721 mmHg 88%

    20 February, Wednesday

    Time Temperature Precipitation Wind Pressure Humidity
    00:00 +4°C° 0 mm 1 mps 721 mmHg 89%
    01:00 +4°C° 0 mm 1 mps 722 mmHg 90%
    02:00 +4°C° 0 mm 1 mps 721 mmHg 90%
    03:00 +4°C° 0 mm 1 mps 721 mmHg 90%
    04:00 +3°C° 0 mm 1 mps 721 mmHg 90%
    05:00 +3°C° 0 mm 1 mps 722 mmHg 90%
    06:00 +3°C° 0 mm 1 mps 722 mmHg 90%
    07:00 +3°C° 0 mm 1 mps 722 mmHg 89%
    08:00 +4°C° 0 mm 1 mps 722 mmHg 84%
    09:00 +5°C° 0 mm 1 mps 723 mmHg 79%
    10:00 +7°C° 0 mm 1 mps 723 mmHg 74%
    11:00 +8°C° 0 mm 1 mps 723 mmHg 71%
    12:00 +9°C° 0 mm 1 mps 723 mmHg 67%
    13:00 +10°C° 0 mm 2 mps 723 mmHg 63%
    14:00 +11°C° 0 mm 1 mps 723 mmHg 65%
    15:00 +11°C° 0 mm 1 mps 723 mmHg 66%
    16:00 +11°C° 0 mm 1 mps 723 mmHg 67%
    17:00 +9°C° 0 mm 1 mps 723 mmHg 72%
    18:00 +8°C° 0 mm 1 mps 723 mmHg 77%
    19:00 +7°C° 0 mm 1 mps 724 mmHg 82%
    20:00 +6°C° 0 mm 1 mps 724 mmHg 83%
    21:00 +6°C° 0 mm 1 mps 724 mmHg 84%
    22:00 +5°C° 0 mm 1 mps 724 mmHg 85%
    23:00 +5°C° 0 mm 1 mps 724 mmHg 86%

    21 February, Thursday

    Time Temperature Precipitation Wind Pressure Humidity
    00:00 +4°C° 0 mm 1 mps 725 mmHg 86%
    01:00 +4°C° 0 mm 1 mps 725 mmHg 87%
    02:00 +4°C° 0 mm 1 mps 724 mmHg 87%
    03:00 +4°C° 0 mm 1 mps 724 mmHg 87%
    04:00 +3°C° 0 mm 1 mps 724 mmHg 88%
    05:00 +3°C° 0 mm 1 mps 724 mmHg 88%
    06:00 +3°C° 0 mm 1 mps 725 mmHg 88%
    07:00 +2°C° 0 mm 2 mps 725 mmHg 88%
    08:00 +3°C° 0 mm 2 mps 725 mmHg 83%
    09:00 +5°C° 0 mm 2 mps 725 mmHg 78%
    10:00 +6°C° 0 mm 2 mps 726 mmHg 74%
    11:00 +8°C° 0 mm 2 mps 726 mmHg 70%
    12:00 +9°C° 0 mm 2 mps 726 mmHg 67%
    13:00 +10°C° 0 mm 2 mps 726 mmHg 63%
    14:00 +10°C° 0 mm 2 mps 725 mmHg 63%
    15:00 +10°C° 0 mm 2 mps 725 mmHg 64%
    16:00 +12°C° 0 mm 2 mps 725 mmHg 64%
    17:00 +10°C° 0 mm 1 mps 726 mmHg 70%
    18:00 +9°C° 0 mm 1 mps 726 mmHg 76%
    19:00 +7°C° 0 mm 1 mps 726 mmHg 82%
    20:00 +7°C° 0 mm 1 mps 726 mmHg 84%
    21:00 +6°C° 0 mm 1 mps 727 mmHg 85%
    22:00 +6°C° 0 mm 1 mps 727 mmHg 87%
    23:00 +5°C° 0 mm 1 mps 727 mmHg 88%

    22 February, Friday

    Time Temperature Precipitation Wind Pressure Humidity
    00:00 +5°C° 0 mm 1 mps 727 mmHg 88%
    01:00 +5°C° 0 mm 1 mps 727 mmHg 89%
    02:00 +4°C° 0 mm 1 mps 727 mmHg 90%
    03:00 +4°C° 0 mm 1 mps 727 mmHg 90%
    04:00 +4°C° 0 mm 1 mps 727 mmHg 91%
    05:00 +4°C° 0 mm 1 mps 727 mmHg 91%
    06:00 +4°C° 0 mm 1 mps 727 mmHg 91%
    07:00 +4°C° 0 mm 1 mps 728 mmHg 91%
    08:00 +5°C° 0 mm 1 mps 728 mmHg 87%
    09:00 +7°C° 0 mm 1 mps 728 mmHg 83%
    10:00 +8°C° 0 mm 1 mps 728 mmHg 79%
    11:00 +8°C° 0 mm 2 mps 728 mmHg 76%
    12:00 +9°C° 0 mm 2 mps 728 mmHg 74%
    13:00 +10°C° 0 mm 2 mps 728 mmHg 71%
    14:00 +10°C° 0 mm 2 mps 728 mmHg 71%
    15:00 +10°C° 0 mm 2 mps 728 mmHg 72%
    16:00 +10°C° 0 mm 3 mps 728 mmHg 72%
    17:00 +9°C° 0 mm 2 mps 728 mmHg 78%
    18:00 +8°C° 0 mm 2 mps 728 mmHg 85%
    19:00 +7°C° 0 mm 2 mps 728 mmHg 91%
    20:00 +6°C° 0 mm 2 mps 728 mmHg 91%
    21:00 +6°C° 0 mm 2 mps 728 mmHg 92%
    22:00 +6°C° 0 mm 2 mps 728 mmHg 92%
    23:00 +5°C° 0 mm 2 mps 728 mmHg 93%
    Show more